CW5842 Weather Reports


time (UTC)temp
C
wind
direction
speed
KPH
gust
KPH
rain 1hr
cm
rain 24hr
cm
rain mn
cm
humidity
%
barometer
mb
20260509213037 32 117 3.2 9.7 0.00 0.20 0.20 39 1008.4
20260509212522 32 195 0.0 11.3 0.00 0.20 0.20 39 1008.5
20260509212022 32 94 3.2 11.3 0.00 0.20 0.20 39 1008.5
20260509211537 32 103 3.2 11.3 0.00 0.20 0.20 39 1008.7
20260509211023 32 159 3.2 9.7 0.00 0.20 0.20 40 1008.7
20260509210526 32 115 4.8 11.3 0.00 0.20 0.20 38 1008.7
20260509210037 32 161 1.6 11.3 0.00 0.20 0.20 39 1008.9
20260509205523 32 167 1.6 8.0 0.00 0.20 0.20 41 1009.0
20260509205023 32 308 1.6 9.7 0.00 0.20 0.20 41 1009.1
20260509204537 32 128 3.2 12.9 0.00 0.20 0.20 42 1009.3
20260509204022 32 0 4.8 12.9 0.00 0.20 0.20 39 1009.3
20260509203522 32 206 3.2 11.3 0.00 0.20 0.20 41 1009.4
20260509203037 31 154 3.2 11.3 0.00 0.20 0.20 42 1009.4
20260509202520 31 0 3.2 11.3 0.00 0.20 0.20 40 1009.4
20260509202026 32 180 3.2 11.3 0.00 0.20 0.20 43 1009.5
20260509201547 31 154 1.6 11.3 0.00 0.20 0.20 44 1009.5
20260509201022 31 84 4.8 12.9 0.00 0.20 0.20 43 1009.5
20260509200522 31 92 3.2 14.5 0.00 0.20 0.20 42 1009.6
20260509200045 31 247 4.8 14.5 0.00 0.20 0.20 42 1009.7
20260509195525 31 90 4.8 12.9 0.00 0.20 0.20 44 1009.8
20260509195019 31 57 4.8 12.9 0.00 0.20 0.20 43 1009.8
20260509194537 31 61 4.8 12.9 0.00 0.20 0.20 42 1009.8
20260509194020 31 76 6.4 14.5 0.00 0.20 0.20 43 1009.8
20260509193520 31 68 4.8 14.5 0.00 0.20 0.20 43 1009.9
20260509193037 31 51 3.2 12.9 0.00 0.20 0.20 42 1009.9
20260509192520 30 192 4.8 12.9 0.00 0.20 0.20 45 1010.1
20260509192020 30 124 4.8 12.9 0.00 0.20 0.20 45 1010.2
20260509191537 30 88 4.8 12.9 0.00 0.20 0.20 43 1010.2
20260509191024 30 193 4.8 14.5 0.00 0.20 0.20 44 1010.4
20260509190519 30 103 4.8 14.5 0.00 0.20 0.20 43 1010.3
20260509190038 30 77 6.4 14.5 0.00 0.20 0.20 43 1010.4
20260509185521 31 42 4.8 14.5 0.00 0.20 0.20 42 1010.4
20260509185022 31 294 1.6 8.0 0.00 0.20 0.20 45 1010.5
20260509184536 30 281 1.6 12.9 0.00 0.20 0.20 45 1010.5
20260509184020 30 259 1.6 12.9 0.00 0.20 0.20 48 1010.6
20260509183522 30 337 1.6 11.3 0.00 0.20 0.20 47 1010.6
20260509183041 30 48 4.8 11.3 0.00 0.20 0.20 45 1010.7
20260509182520 30 5 3.2 12.9 0.00 0.20 0.20 45 1010.7
20260509182020 30 271 4.8 12.9 0.00 0.20 0.20 45 1010.8
20260509181542 30 261 1.6 8.0 0.00 0.20 0.20 47 1010.8
20260509181020 30 52 1.6 12.9 0.00 0.20 0.20 47 1010.9
20260509180522 30 314 3.2 12.9 0.00 0.20 0.20 47 1011.1
20260509180043 30 289 3.2 12.9 0.00 0.20 0.20 47 1011.2
20260509175520 30 327 4.8 12.9 0.00 0.20 0.20 47 1011.2
20260509175022 30 352 3.2 11.3 0.00 0.20 0.20 49 1011.2
20260509174538 29 309 3.2 11.3 0.00 0.20 0.20 50 1011.2
20260509174021 29 0 1.6 9.7 0.00 0.20 0.20 51 1011.3
20260509173521 28 0 1.6 9.7 0.00 0.20 0.20 51 1011.2
20260509173037 28 90 3.2 8.0 0.00 0.20 0.20 51 1011.4
20260509172523 28 40 1.6 12.9 0.00 0.20 0.20 51 1011.3
20260509172021 28 118 3.2 16.1 0.00 0.20 0.20 51 1011.4
20260509171542 28 17 4.8 16.1 0.00 0.20 0.20 51 1011.3
20260509171022 28 23 1.6 12.9 0.00 0.20 0.20 53 1011.4
20260509170524 28 329 1.6 12.9 0.00 0.20 0.20 51 1011.5
20260509170043 28 317 3.2 9.7 0.00 0.20 0.20 51 1011.5
20260509165522 28 352 1.6 12.9 0.00 0.20 0.20 52 1011.5
20260509165024 28 352 4.8 12.9 0.00 0.20 0.20 52 1011.6
20260509164549 28 31 0.0 12.9 0.00 0.20 0.20 55 1011.7
20260509164022 28 5 3.2 12.9 0.00 0.20 0.20 52 1011.8
20260509163525 28 0 1.6 8.0 0.00 0.20 0.20 52 1011.8
20260509163039 27 321 1.6 9.7 0.00 0.20 0.20 54 1011.7
20260509162520 27 360 3.2 9.7 0.00 0.20 0.20 55 1011.8
20260509162022 27 5 1.6 11.3 0.00 0.20 0.20 57 1011.9
20260509161538 27 0 1.6 11.3 0.00 0.20 0.20 57 1011.7
20260509161019 27 360 3.2 11.3 0.00 0.20 0.20 56 1011.8
20260509160520 27 62 1.6 6.4 0.00 0.20 0.20 55 1011.8
20260509160038 26 298 1.6 4.8 0.00 0.20 0.20 58 1011.9
20260509155517 26 0 3.2 6.4 0.00 0.20 0.20 57 1011.8
20260509155017 26 321 1.6 9.7 0.00 0.20 0.20 60 1011.9
20260509154542 26 238 3.2 9.7 0.00 0.20 0.20 58 1011.8
20260509154023 26 249 0.0 6.4 0.00 0.20 0.20 60 1011.9
20260509153520 26 25 0.0 8.0 0.00 0.20 0.20 62 1011.8
20260509153036 25 0 1.6 8.0 0.00 0.20 0.20 62 1011.9
20260509152520 25 360 1.6 4.8 0.00 0.20 0.20 63 1012.0
20260509152019 25 302 0.0 4.8 0.00 0.20 0.20 62 1012.0
20260509151538 26 0 0.0 6.4 0.00 0.20 0.20 62 1012.0
20260509151019 26 323 1.6 6.4 0.00 0.20 0.20 63 1011.9
20260509150519 26 5 1.6 6.4 0.00 0.20 0.20 63 1011.9
20260509150042 25 299 1.6 6.4 0.00 0.20 0.20 62 1012.0
20260509145520 25 15 1.6 8.0 0.00 0.20 0.20 64 1012.0
20260509145018 25 333 1.6 8.0 0.00 0.20 0.20 63 1012.1
20260509144537 25 5 1.6 11.3 0.00 0.20 0.20 64 1012.1
20260509144023 24 11 1.6 11.3 0.00 0.20 0.20 66 1012.2
20260509143519 24 267 3.2 11.3 0.00 0.20 0.20 66 1012.1
20260509143038 24 320 1.6 8.0 0.00 0.20 0.20 69 1012.0
20260509142519 23 287 1.6 9.7 0.00 0.20 0.20 69 1012.1
20260509142019 23 350 3.2 11.3 0.00 0.20 0.20 69 1012.0
20260509141537 23 311 3.2 11.3 0.00 0.20 0.20 71 1012.0
20260509141019 23 23 1.6 11.3 0.00 0.20 0.20 73 1012.0
20260509140517 22 332 1.6 14.5 0.00 0.20 0.20 73 1011.9
20260509140037 22 310 3.2 14.5 0.00 0.20 0.20 74 1011.9
20260509135522 22 0 1.6 11.3 0.00 0.20 0.20 75 1011.9
20260509135021 22 334 3.2 11.3 0.00 0.20 0.20 74 1011.9
20260509134558 22 352 1.6 8.0 0.00 0.20 0.20 75 1011.9
20260509134019 22 323 1.6 11.3 0.00 0.20 0.20 75 1011.8
20260509133519 21 0 1.6 12.9 0.00 0.20 0.20 76 1011.6
20260509133037 21 0 1.6 12.9 0.00 0.20 0.20 76 1011.6
20260509132519 21 0 3.2 11.3 0.00 0.20 0.20 76 1011.6
20260509132017 21 0 1.6 9.7 0.00 0.20 0.20 77 1011.5
20260509131548 21 319 3.2 9.7 0.00 0.20 0.20 78 1011.3
20260509131018 21 0 1.6 6.4 0.00 0.20 0.20 78 1011.2
20260509130519 21 342 0.0 11.3 0.00 0.20 0.20 80 1011.1
20260509130040 21 10 1.6 11.3 0.00 0.20 0.20 80 1010.9
20260509125519 20 0 1.6 9.7 0.00 0.20 0.20 80 1010.8
20260509125017 20 325 1.6 6.4 0.00 0.20 0.20 80 1010.9
20260509124537 20 306 1.6 4.8 0.00 0.20 0.20 80 1010.8
20260509124020 20 9 1.6 4.8 0.00 0.20 0.20 80 1010.7
20260509123520 20 13 1.6 11.3 0.00 0.20 0.20 80 1010.6
20260509123037 20 0 1.6 11.3 0.00 0.20 0.20 80 1010.6
20260509122517 20 23 3.2 11.3 0.00 0.20 0.20 80 1010.5
20260509122020 20 15 1.6 9.7 0.00 0.20 0.20 81 1010.6
20260509121538 20 5 1.6 9.7 0.00 0.20 0.20 81 1010.4
20260509121017 19 5 1.6 6.4 0.00 0.20 0.20 81 1010.4
20260509120520 19 9 1.6 6.4 0.00 0.20 0.20 81 1010.4
20260509120038 19 315 1.6 8.0 0.00 0.20 0.20 81 1010.4
20260509115519 19 352 1.6 8.0 0.00 0.20 0.20 81 1010.5
20260509115022 19 321 1.6 6.4 0.00 0.20 0.20 81 1010.5
20260509114542 19 352 3.2 6.4 0.00 0.20 0.20 81 1010.4
20260509114018 19 25 1.6 8.0 0.00 0.20 0.20 81 1010.5
20260509113522 19 352 1.6 9.7 0.00 0.20 0.20 81 1010.6
20260509113039 20 337 1.6 9.7 0.00 0.20 0.20 81 1010.7
20260509112519 20 343 3.2 9.7 0.00 0.20 0.20 80 1010.6
20260509112017 20 5 1.6 6.4 0.00 0.20 0.20 80 1010.7
20260509111533 20 352 0.0 6.4 0.00 0.20 0.20 80 1010.6
20260509111018 20 313 1.6 8.0 0.00 0.20 0.20 80 1010.6
20260509110517 20 352 1.6 8.0 0.00 0.20 0.20 80 1010.6
20260509110036 20 287 3.2 12.9 0.00 0.20 0.20 80 1010.4
20260509105518 20 346 1.6 12.9 0.00 0.20 0.20 80 1010.4
20260509105017 20 11 3.2 12.9 0.00 0.20 0.20 80 1010.4
20260509104539 20 275 1.6 11.3 0.00 0.20 0.20 80 1010.6
20260509104018 20 92 3.2 11.3 0.00 0.20 0.20 81 1010.5
20260509103519 20 0 1.6 8.0 0.00 0.20 0.20 80 1010.3
20260509103037 20 252 0.0 8.0 0.00 0.20 0.20 80 1009.8
20260509102518 20 321 1.6 6.4 0.00 0.20 0.20 80 1009.9
20260509102024 20 281 0.0 9.7 0.00 0.20 0.20 80 1009.5
20260509101548 20 278 3.2 11.3 0.00 0.20 0.20 80 1009.3
20260509101020 20 171 1.6 11.3 0.00 0.20 0.20 80 1008.8
20260509100517 20 215 3.2 8.0 0.00 0.20 0.20 80 1008.6
20260509100037 21 106 3.2 6.4 0.00 0.20 0.20 79 1008.0
20260509095519 21 105 1.6 11.3 0.00 0.20 0.20 79 1007.8
20260509095018 21 224 3.2 11.3 0.00 0.20 0.20 79 1007.7
20260509094537 21 294 3.2 33.8 0.00 0.20 0.20 78 1007.8
20260509094019 21 232 9.7 38.6 0.00 0.20 0.20 79 1007.7
20260509093519 20 167 17.7 38.6 0.00 0.20 0.20 80 1007.9
20260509093038 20 156 11.3 30.6 0.00 0.20 0.20 76 1008.7
20260509092518 20 327 4.8 17.7 0.00 0.20 0.20 76 1008.3
20260509092021 20 158 6.4 17.7 0.00 0.20 0.20 76 1007.4
20260509091537 20 148 4.8 14.5 0.00 0.20 0.20 76 1007.9
20260509091018 20 159 6.4 12.9 0.00 0.20 0.20 76 1008.7
20260509090523 20 213 3.2 11.3 0.00 0.20 0.20 76 1009.3
20260509090037 20 162 3.2 6.4 0.00 0.20 0.20 76 1009.4
20260509085522 20 223 1.6 6.4 0.00 0.20 0.20 76 1009.6
20260509085017 20 0 0.0 6.4 0.00 0.20 0.20 76 1009.6
20260509084537 20 0 0.0 8.0 0.00 0.20 0.20 76 1009.9
20260509084019 20 182 0.0 9.7 0.03 0.20 0.20 76 1009.8
20260509083519 20 169 3.2 9.7 0.08 0.20 0.20 76 1010.0
20260509083042 20 0 4.8 12.9 0.13 0.20 0.20 76 1010.2
20260509082519 20 163 4.8 12.9 0.15 0.20 0.20 77 1010.2
20260509082020 20 171 4.8 11.3 0.18 0.20 0.20 77 1010.3
20260509081537 20 221 3.2 9.7 0.20 0.20 0.20 77 1010.5
20260509081019 20 234 4.8 9.7 0.20 0.20 0.20 77 1010.4
20260509080519 20 163 1.6 11.3 0.20 0.20 0.20 77 1010.4
20260509080039 20 137 3.2 11.3 0.20 0.20 0.20 77 1010.6
20260509075518 20 119 4.8 12.9 0.20 0.20 0.20 78 1011.1
20260509075018 20 129 4.8 12.9 0.20 0.20 0.20 78 1011.6
20260509074546 20 149 0.0 4.8 0.18 0.18 0.18 79 1011.9
20260509074018 20 0 1.6 3.2 0.15 0.15 0.15 79 1012.1
20260509073518 20 0 0.0 3.2 0.13 0.13 0.13 79 1012.4
20260509073037 20 0 0.0 4.8 0.08 0.08 0.08 80 1012.7
20260509072520 20 76 1.6 8.0 0.05 0.05 0.05 80 1012.7
20260509072023 20 82 3.2 8.0 0.00 0.00 0.00 79 1012.8
20260509071537 20 313 1.6 12.9 0.00 0.00 0.00 79 1012.7
20260509071020 20 10 1.6 12.9 0.00 0.00 0.00 78 1013.0
20260509070521 20 360 3.2 16.1 0.00 0.00 0.00 78 1013.0
20260509070040 20 360 4.8 16.1 0.00 0.00 0.00 77 1012.9
20260509065518 20 360 3.2 16.1 0.00 0.00 0.00 77 1012.9
20260509065018 20 360 1.6 8.0 0.00 0.00 0.00 77 1012.7
20260509064552 19 0 0.0 8.0 0.00 0.00 0.00 77 1012.2
20260509064021 19 360 1.6 6.4 0.00 0.00 0.00 78 1012.3
20260509063517 19 360 1.6 6.4 0.00 0.00 0.00 78 1011.9
20260509063043 19 360 0.0 4.8 0.00 0.00 0.00 79 1012.1
20260509062518 18 360 0.0 3.2 0.00 0.00 0.00 79 1011.6
20260509062018 19 0 0.0 0.0 0.00 0.00 0.00 80 1011.7
20260509061542 19 0 0.0 0.0 0.00 0.00 0.00 80 1011.1
20260509061017 19 0 0.0 0.0 0.00 0.00 0.00 80 1011.0
20260509060519 20 0 0.0 0.0 0.00 0.00 0.00 79 1011.1
20260509060038 20 0 0.0 0.0 0.00 0.00 0.00 80 1011.1
20260509055518 20 0 0.0 0.0 0.00 0.00 0.00 80 1011.1
20260509055019 20 0 0.0 0.0 0.00 0.00 0.00 79 1011.2
20260509054537 20 0 0.0 1.6 0.00 0.00 0.00 79 1011.2
20260509054017 20 0 0.0 3.2 0.00 0.00 0.00 79 1011.2
20260509053518 20 0 0.0 6.4 0.00 0.00 0.00 79 1011.1
20260509053036 20 360 3.2 6.4 0.00 0.00 0.00 79 1011.3
20260509052518 20 0 1.6 6.4 0.00 0.00 0.00 79 1011.3
20260509052017 20 0 1.6 3.2 0.00 0.00 0.00 80 1011.2
20260509051538 20 0 0.0 3.2 0.00 0.00 0.00 80 1011.0
20260509051018 20 0 0.0 4.8 0.00 0.00 0.00 80 1010.8
20260509050522 20 0 0.0 4.8 0.00 0.00 0.00 80 1010.8
20260509050039 20 0 0.0 0.0 0.00 0.00 0.00 80 1010.8
20260509045522 20 0 0.0 0.0 0.00 0.00 0.00 80 1010.6
20260509045017 20 0 0.0 0.0 0.00 0.00 0.00 81 1010.3
20260509044537 20 0 0.0 0.0 0.00 0.00 0.00 81 1010.3
20260509044019 20 0 0.0 0.0 0.00 0.00 0.00 81 1010.3
20260509043522 20 0 0.0 0.0 0.00 0.00 0.00 80 1010.3
20260509043041 20 0 0.0 3.2 0.00 0.00 0.00 80 1010.4
20260509042517 20 0 0.0 3.2 0.00 0.00 0.00 81 1010.5
20260509042018 20 360 0.0 3.2 0.00 0.00 0.00 80 1010.4
20260509041538 21 0 1.6 3.2 0.00 0.00 0.00 80 1010.3
20260509041020 21 169 0.0 3.2 0.00 0.00 0.00 80 1010.3
20260509040520 21 0 0.0 3.2 0.00 0.00 0.00 80 1010.4
20260509040041 21 0 0.0 6.4 0.00 0.00 0.00 80 1010.4
20260509035542 21 360 1.6 6.4 0.00 0.00 0.00 80 1010.3
20260509035021 21 0 0.0 6.4 0.00 0.00 0.00 80 1010.3
20260509034548 21 360 0.0 6.4 0.00 0.00 0.00 80 1010.4
20260509034026 21 360 0.0 4.8 0.00 0.00 0.00 80 1010.4
20260509033520 21 0 0.0 3.2 0.00 0.00 0.00 80 1010.6
20260509033044 21 360 0.0 6.4 0.00 0.00 0.00 80 1010.6
20260509032521 21 0 0.0 6.4 0.00 0.00 0.00 80 1010.5
20260509032023 21 360 3.2 6.4 0.00 0.00 0.00 80 1010.4
20260509031543 21 360 1.6 6.4 0.00 0.00 0.00 80 1010.4
20260509031022 21 0 0.0 4.8 0.00 0.00 0.00 80 1010.4
20260509030522 21 0 0.0 6.4 0.00 0.00 0.00 80 1010.4
20260509030037 21 0 0.0 6.4 0.00 0.00 0.00 80 1010.2
20260509025522 21 183 3.2 6.4 0.00 0.00 0.00 80 1010.0
20260509025022 21 190 1.6 6.4 0.00 0.00 0.00 79 1009.9
20260509024539 21 184 1.6 6.4 0.00 0.00 0.00 79 1009.9
20260509024022 22 360 0.0 4.8 0.00 0.00 0.00 79 1009.8
20260509023523 22 0 0.0 6.4 0.00 0.00 0.00 79 1009.8
20260509023037 22 360 3.2 6.4 0.00 0.00 0.00 79 1009.7
20260509022522 22 360 0.0 3.2 0.00 0.00 0.00 78 1009.8
20260509022023 22 0 0.0 1.6 0.00 0.00 0.00 78 1009.7
20260509021537 22 0 0.0 1.6 0.00 0.00 0.00 78 1009.7
20260509021022 22 360 0.0 1.6 0.00 0.00 0.00 78 1009.6
20260509020522 22 0 0.0 1.6 0.00 0.00 0.00 77 1009.6
20260509020033 22 0 0.0 3.2 0.00 0.00 0.00 77 1009.6
20260509015522 22 0 0.0 3.2 0.00 0.00 0.00 77 1009.5
20260509015020 22 190 0.0 4.8 0.00 0.00 0.00 76 1009.5
20260509014540 23 0 0.0 4.8 0.00 0.00 0.00 76 1009.5
20260509014019 23 149 0.0 1.6 0.00 0.00 0.00 76 1009.5
20260509013526 23 0 0.0 4.8 0.00 0.00 0.00 76 1009.4
20260509013051 23 0 0.0 4.8 0.00 0.00 0.00 76 1009.3
20260509012521 23 184 0.0 6.4 0.00 0.00 0.00 76 1009.2
20260509012021 23 0 0.0 8.0 0.00 0.00 0.00 76 1009.2
20260509011539 23 0 0.0 8.0 0.00 0.00 0.00 75 1009.1
20260509011020 23 165 3.2 8.0 0.00 0.00 0.00 75 1009.0
20260509010523 23 174 0.0 6.4 0.00 0.00 0.00 75 1008.9
20260509010039 23 149 0.0 9.7 0.00 0.00 0.00 75 1008.9
20260509005523 23 165 3.2 9.7 0.00 0.00 0.00 74 1008.9
20260509005022 23 177 1.6 8.0 0.00 0.00 0.00 74 1008.9
20260509004541 23 138 1.6 8.0 0.00 0.00 0.00 74 1008.8
20260509004021 23 202 1.6 8.0 0.00 0.00 0.00 74 1008.8
20260509003521 24 165 1.6 8.0 0.00 0.00 0.00 73 1008.7
20260509003037 24 173 0.0 6.4 0.00 0.00 0.00 74 1008.6
20260509002518 24 0 1.6 8.0 0.00 0.00 0.00 73 1008.6
20260509002019 24 0 1.6 8.0 0.00 0.00 0.00 73 1008.7
20260509001543 24 143 1.6 9.7 0.00 0.00 0.00 73 1008.7
20260509001017 24 195 3.2 14.5 0.00 0.00 0.00 73 1008.6
20260509000518 24 213 3.2 16.1 0.00 0.00 0.00 72 1008.7
20260509000038 24 211 4.8 16.1 0.00 0.00 0.00 72 1008.6
20260508235523 25 207 4.8 12.9 0.00 0.00 0.00 71 1008.5
20260508235021 25 175 4.8 14.5 0.00 0.00 0.00 71 1008.5
20260508234541 25 135 4.8 14.5 0.00 0.00 0.00 71 1008.6
20260508234018 25 170 4.8 14.5 0.00 0.00 0.00 71 1008.6
20260508233522 25 175 6.4 14.5 0.00 0.00 0.00 71 1008.5
20260508233037 25 157 3.2 16.1 0.00 0.00 0.00 71 1008.7
20260508232517 25 178 3.2 16.1 0.00 0.00 0.00 71 1008.6
20260508232021 25 165 4.8 14.5 0.00 0.00 0.00 71 1008.5
20260508231537 25 161 6.4 14.5 0.00 0.00 0.00 71 1008.5
20260508231023 25 169 4.8 14.5 0.00 0.00 0.00 71 1008.6
20260508230521 25 190 4.8 14.5 0.00 0.00 0.00 71 1008.6
20260508230039 25 89 1.6 9.7 0.00 0.00 0.00 71 1008.6
20260508225521 25 97 3.2 11.3 0.00 0.00 0.00 71 1008.6
20260508225021 25 126 3.2 11.3 0.00 0.00 0.00 71 1008.8
20260508224548 25 138 3.2 11.3 0.00 0.00 0.00 71 1008.8
20260508224021 25 171 3.2 9.7 0.00 0.00 0.00 71 1008.8
20260508223521 25 174 4.8 12.9 0.00 0.00 0.00 71 1008.7
20260508223047 24 153 3.2 12.9 0.00 0.00 0.00 71 1008.8
20260508222520 24 150 3.2 11.3 0.00 0.00 0.00 71 1008.9
20260508222021 24 153 4.8 11.3 0.00 0.00 0.00 70 1008.9
20260508221538 24 200 4.8 9.7 0.00 0.00 0.00 70 1009.0
20260508221018 24 171 0.0 12.9 0.00 0.00 0.00 70 1009.1
20260508220518 24 118 4.8 12.9 0.00 0.00 0.00 70 1009.2
20260508220037 25 124 3.2 12.9 0.00 0.00 0.00 69 1009.2
20260508215517 25 153 3.2 12.9 0.00 0.00 0.00 70 1009.1
20260508215018 24 108 3.2 14.5 0.00 0.00 0.00 70 1009.1
20260508214553 24 101 4.8 22.5 0.00 0.00 0.00 70 1009.1
20260508214022 24 130 6.4 22.5 0.00 0.00 0.00 71 1009.2
20260508213518 24 126 6.4 19.3 0.00 0.00 0.00 70 1009.2